Weather History for Hazen, ND

Change the Weather History Date:

Monday, November 25, 2013

  Actual Average (KN60) Record (KN60)
Temperature  
Mean Temperature 26 °F -  
Max Temperature 33 °F 31 °F 48 °F (1999)
Min Temperature 17 °F 14 °F -17 °F (1996)
Degree Days  
Heating Degree Days 39    
Moisture  
Dew Point 21 °F    
Average Humidity 73    
Maximum Humidity 86    
Minimum Humidity 64    
Precipitation  
Precipitation 0.00 in - - ()
Sea Level Pressure  
Sea Level Pressure 30.15 in    
Wind  
Wind Speed 13 mph (NW)    
Max Wind Speed 26 mph    
Max Gust Speed 36 mph    
Visibility 10 miles    
Events      
Averages and records for this station are not official NWS values.
T = Trace of Precipitation, MM = Missing Value Source: NWS Daily Summary

Daily Weather History Graph

Daily Weather History Graph

Search for Another Location

Airport:

Trip Planner

Search our weather history database for the weather conditions in past years. The results will help you decide how hot, cold, wet, or windy it might be!

Date:

Astronomy

Nov. 25, 2013 Rise Set
Actual Time 8:05 AM CST 5:01 PM CST
Civil Twilight 7:30 AM CST 5:35 PM CST
Nautical Twilight 6:52 AM CST 6:13 PM CST
Astronomical Twilight 6:16 AM CST 6:50 PM CST
Moon No Moon Rise 1:06 PM CST (11/25)
Length of Visible Light 10h 05m
Length of Day
8h 56m
Waning Gibbous, 51% of the Moon is Illuminated
Nov 25
Waning Gibbous
Nov 25
Last Quarter
Dec 2
New
Dec 9
First Quarter
Dec 17
Full

Hourly Weather History & Observations

Time (CST) Temp. Windchill Dew Point Humidity Pressure Visibility Wind Dir Wind Speed Gust Speed Precip Events Conditions
12:15 AM 33.8 °F 25.8 °F 26.6 °F 75% 29.98 in 10.0 mi WNW 10.4 mph 17.3 mph N/A   Clear
12:35 AM 33.8 °F 25.3 °F 24.8 °F 70% 29.99 in 10.0 mi WNW 11.5 mph 16.1 mph N/A   Clear
12:55 AM 33.8 °F 24.8 °F 24.8 °F 70% 29.99 in 10.0 mi NW 12.7 mph 19.6 mph N/A   Clear
1:15 AM 32.0 °F 22.1 °F 24.8 °F 75% 29.99 in 10.0 mi NW 13.8 mph 17.3 mph N/A   Clear
1:35 AM 32.0 °F 21.6 °F 24.8 °F 75% 29.99 in 10.0 mi NW 15.0 mph 23.0 mph N/A   Clear
2:15 AM 32.0 °F 22.1 °F 24.8 °F 75% 30.01 in 10.0 mi NW 13.8 mph 18.4 mph N/A   Clear
2:35 AM 32.0 °F 23.0 °F 24.8 °F 75% 30.02 in 10.0 mi WNW 11.5 mph 18.4 mph N/A   Clear
2:55 AM 32.0 °F 23.6 °F 24.8 °F 75% 30.02 in 10.0 mi WNW 10.4 mph - N/A   Clear
3:15 AM 32.0 °F 24.8 °F 24.8 °F 75% 30.03 in 10.0 mi WNW 8.1 mph - N/A   Clear
3:35 AM 30.2 °F 22.6 °F 24.8 °F 80% 30.04 in 10.0 mi West 8.1 mph - N/A   Clear
3:55 AM 28.4 °F 20.4 °F 23.0 °F 80% 30.04 in 10.0 mi West 8.1 mph - N/A   Clear
4:15 AM 28.4 °F 20.4 °F 23.0 °F 80% 30.04 in 10.0 mi WNW 8.1 mph - N/A   Partly Cloudy
4:35 AM 24.8 °F 16.9 °F 19.4 °F 80% 30.05 in 10.0 mi West 6.9 mph - N/A   Partly Cloudy
4:55 AM 23.0 °F 13.9 °F 19.4 °F 86% 30.05 in 10.0 mi West 8.1 mph - N/A   Partly Cloudy
5:15 AM 24.8 °F 16.1 °F 21.2 °F 86% 30.05 in 10.0 mi West 8.1 mph - N/A   Clear
5:35 AM 24.8 °F 16.9 °F 21.2 °F 86% 30.06 in 10.0 mi West 6.9 mph - N/A   Clear
5:55 AM 23.0 °F 15.8 °F 19.4 °F 86% 30.07 in 10.0 mi WSW 5.8 mph - N/A   Clear
6:15 AM 23.0 °F 14.7 °F 19.4 °F 86% 30.08 in 10.0 mi West 6.9 mph - N/A   Scattered Clouds
6:35 AM 23.0 °F 13.9 °F 19.4 °F 86% 30.08 in 10.0 mi SW 8.1 mph - N/A   Scattered Clouds
6:55 AM 24.8 °F 14.0 °F 19.4 °F 80% 30.09 in 10.0 mi WSW 11.5 mph - N/A   Clear
7:15 AM 26.6 °F 16.2 °F 21.2 °F 80% 30.10 in 10.0 mi West 11.5 mph - N/A   Partly Cloudy
7:35 AM 26.6 °F 15.2 °F 21.2 °F 80% 30.10 in 10.0 mi West 13.8 mph - N/A   Partly Cloudy
7:55 AM 26.6 °F 15.2 °F 21.2 °F 80% 30.10 in 10.0 mi WNW 13.8 mph 21.9 mph N/A   Clear
8:15 AM 26.6 °F 16.8 °F 21.2 °F 80% 30.11 in 10.0 mi WNW 10.4 mph - N/A   Clear
8:35 AM 26.6 °F 17.5 °F 21.2 °F 80% 30.11 in 10.0 mi West 9.2 mph - N/A   Clear
8:55 AM 26.6 °F 19.1 °F 19.4 °F 74% 30.12 in 10.0 mi West 6.9 mph - N/A   Clear
9:15 AM 28.4 °F 18.5 °F 21.2 °F 74% 30.13 in 10.0 mi WNW 11.5 mph - N/A   Clear
9:35 AM 28.4 °F 18.5 °F 21.2 °F 74% 30.13 in 10.0 mi WNW 11.5 mph - N/A   Clear
9:55 AM 28.4 °F 18.5 °F 21.2 °F 74% 30.14 in 10.0 mi WNW 11.5 mph - N/A   Clear
10:15 AM 30.2 °F 20.2 °F 21.2 °F 69% 30.15 in 10.0 mi WNW 12.7 mph 17.3 mph N/A   Clear
10:35 AM 32.0 °F 23.0 °F 21.2 °F 64% 30.16 in 10.0 mi WNW 11.5 mph 16.1 mph N/A   Partly Cloudy
10:55 AM 30.2 °F 19.8 °F 21.2 °F 69% 30.16 in 10.0 mi WNW 13.8 mph - N/A   Scattered Clouds
11:15 AM 30.2 °F 20.2 °F 21.2 °F 69% 30.16 in 10.0 mi WNW 12.7 mph 16.1 mph N/A   Partly Cloudy
11:35 AM 32.0 °F 22.1 °F 23.0 °F 69% 30.17 in 10.0 mi NW 13.8 mph - N/A   Clear
11:55 AM 32.0 °F 20.1 °F 23.0 °F 69% 30.17 in 10.0 mi NW 19.6 mph - N/A   Scattered Clouds
12:15 PM 32.0 °F 19.8 °F 23.0 °F 69% 30.17 in 10.0 mi NW 20.7 mph 28.8 mph N/A   Mostly Cloudy
12:35 PM 32.0 °F 20.5 °F 23.0 °F 69% 30.16 in 10.0 mi NW 18.4 mph 27.6 mph N/A   Partly Cloudy
12:55 PM 32.0 °F 19.2 °F 23.0 °F 69% 30.17 in 10.0 mi NW 23.0 mph 31.1 mph N/A   Scattered Clouds
1:15 PM 32.0 °F 18.4 °F 23.0 °F 69% 30.17 in 10.0 mi NW 26.5 mph 32.2 mph N/A   Mostly Cloudy
1:35 PM 32.0 °F 18.6 °F 21.2 °F 64% 30.17 in 10.0 mi NNW 25.3 mph 35.7 mph N/A   Overcast
1:55 PM 32.0 °F 18.4 °F 21.2 °F 64% 30.17 in 10.0 mi NW 26.5 mph 32.2 mph N/A   Overcast
2:15 PM 32.0 °F 20.1 °F 21.2 °F 64% 30.18 in 10.0 mi NW 19.6 mph 27.6 mph N/A   Overcast
2:35 PM 32.0 °F 20.8 °F 21.2 °F 64% 30.18 in 10.0 mi NW 17.3 mph 27.6 mph N/A   Overcast
2:55 PM 32.0 °F 20.1 °F 21.2 °F 64% 30.18 in 10.0 mi NW 19.6 mph 25.3 mph N/A   Overcast
3:15 PM 32.0 °F 20.8 °F 23.0 °F 69% 30.19 in 10.0 mi NNW 17.3 mph 23.0 mph N/A   Overcast
3:35 PM 32.0 °F 21.6 °F 21.2 °F 64% 30.19 in 10.0 mi NW 15.0 mph 24.2 mph N/A   Overcast
3:55 PM 32.0 °F 22.1 °F 23.0 °F 69% 30.19 in 10.0 mi NW 13.8 mph 19.6 mph N/A   Overcast
4:15 PM 32.0 °F 20.8 °F 23.0 °F 69% 30.20 in 10.0 mi NW 17.3 mph 25.3 mph N/A   Overcast
4:35 PM 32.0 °F 22.1 °F 21.2 °F 64% 30.21 in 10.0 mi NW 13.8 mph 19.6 mph N/A   Overcast
4:55 PM 30.2 °F 18.9 °F 21.2 °F 69% 30.22 in 10.0 mi NW 16.1 mph 23.0 mph N/A   Overcast
5:15 PM 30.2 °F 20.2 °F 21.2 °F 69% 30.21 in 10.0 mi NW 12.7 mph - N/A   Overcast
5:35 PM 30.2 °F 18.9 °F 21.2 °F 69% 30.21 in 10.0 mi NW 16.1 mph 24.2 mph N/A   Overcast
5:55 PM 30.2 °F 19.3 °F 21.2 °F 69% 30.22 in 10.0 mi NW 15.0 mph 26.5 mph N/A   Overcast
6:15 PM 28.4 °F 17.5 °F 21.2 °F 74% 30.22 in 10.0 mi NNW 13.8 mph 18.4 mph N/A   Overcast
6:35 PM 28.4 °F 17.5 °F 21.2 °F 74% 30.23 in 10.0 mi NNW 13.8 mph 18.4 mph N/A   Overcast
6:55 PM 28.4 °F 17.5 °F 21.2 °F 74% 30.23 in 10.0 mi NNW 13.8 mph 21.9 mph N/A   Overcast
7:15 PM 28.4 °F 17.0 °F 19.4 °F 69% 30.24 in 10.0 mi NNW 15.0 mph 24.2 mph N/A   Overcast
7:35 PM 28.4 °F 17.0 °F 19.4 °F 69% 30.24 in 10.0 mi NNW 15.0 mph 19.6 mph N/A   Overcast
7:55 PM 28.4 °F 17.0 °F 19.4 °F 69% 30.25 in 10.0 mi NNW 15.0 mph 24.2 mph N/A   Overcast
8:15 PM 28.4 °F 17.0 °F 19.4 °F 69% 30.25 in 10.0 mi NNW 15.0 mph 21.9 mph N/A   Overcast
8:35 PM 26.6 °F 13.8 °F 19.4 °F 74% 30.25 in 10.0 mi NNW 17.3 mph 25.3 mph N/A   Overcast
8:55 PM 26.6 °F 13.4 °F 19.4 °F 74% 30.26 in 10.0 mi NNW 18.4 mph 26.5 mph N/A   Overcast
9:15 PM 26.6 °F 11.1 °F 19.4 °F 74% 30.26 in 10.0 mi NNW 26.5 mph 32.2 mph N/A   Overcast
9:35 PM 26.6 °F 13.8 °F 19.4 °F 74% 30.27 in 10.0 mi NNW 17.3 mph - N/A   Overcast
9:55 PM 26.6 °F 13.8 °F 15.8 °F 64% 30.28 in 10.0 mi NNW 17.3 mph 24.2 mph N/A   Overcast
10:15 PM 26.6 °F 13.4 °F 15.8 °F 64% 30.29 in 10.0 mi NNW 18.4 mph 25.3 mph N/A   Overcast
10:35 PM 24.8 °F 11.9 °F 15.8 °F 69% 30.30 in 10.0 mi NNW 16.1 mph - N/A   Overcast
10:55 PM 23.0 °F 8.7 °F 14.0 °F 68% 30.31 in 10.0 mi NNW 18.4 mph 26.5 mph N/A   Mostly Cloudy
11:15 PM 23.0 °F 7.2 °F 14.0 °F 68% 30.32 in 10.0 mi NNW 23.0 mph 26.5 mph N/A   Mostly Cloudy
11:35 PM 19.4 °F 5.5 °F 12.2 °F 74% 30.34 in 10.0 mi NNW 15.0 mph 20.7 mph N/A   Mostly Cloudy
11:55 PM 17.6 °F 3.7 °F 10.4 °F 73% 30.35 in 10.0 mi NNW 13.8 mph 21.9 mph N/A   Mostly Cloudy